Location: Croydon
(51.3762°N, 0.0982°W)
Time: 00:16:43
(UTC+00:00)

Tiros 1 despin weight - Visible Passes

Search period start: 12 November 2019 00:00
Search period end: 22 November 2019 00:00
Orbit: 594 x 642 km, 48.2° (Epoch: 11 November)

Date Brightness Start Highest point End Pass type
(mag) Time Alt. Az. Time Alt. Az. Time Alt. Az.
12 Nov ? 17:24:10 10° WSW 17:28:29 49° SSE 17:31:57 16° E visible
12 Nov ? 19:05:20 10° W 19:09:00 49° SW 19:09:00 49° SW visible
13 Nov ? 17:40:33 10° WSW 17:44:57 56° S 17:47:46 21° ESE visible
13 Nov ? 19:21:52 10° W 19:24:49 35° WSW 19:24:49 35° WSW visible
14 Nov ? 17:57:01 10° W 18:01:26 58° S 18:03:37 28° ESE visible
14 Nov ? 19:38:27 10° W 19:40:40 25° WSW 19:40:40 25° WSW visible
15 Nov ? 18:13:32 10° W 18:17:54 53° S 18:19:29 35° SE visible
15 Nov ? 19:55:09 10° W 19:56:33 17° WSW 19:56:33 17° WSW visible
16 Nov ? 16:48:43 10° WSW 16:53:06 58° S 16:57:32 10° E visible
16 Nov ? 18:30:05 10° W 18:34:21 44° SSW 18:35:25 37° SSE visible
16 Nov ? 20:12:08 10° WSW 20:12:29 11° WSW 20:12:29 11° WSW visible
17 Nov ? 17:05:12 10° W 17:09:35 57° S 17:14:01 10° ESE visible
17 Nov ? 18:46:42 10° W 18:50:43 33° SSW 18:51:25 31° S visible
18 Nov ? 17:21:43 10° W 17:26:03 49° SSW 17:30:26 10° ESE visible
18 Nov ? 19:03:29 10° W 19:07:01 23° SSW 19:07:32 22° SSW visible
19 Nov ? 17:38:17 10° W 17:42:27 39° SSW 17:46:40 10° SE visible
19 Nov ? 19:20:44 10° WSW 19:23:12 15° SW 19:23:46 14° SSW visible
20 Nov ? 17:54:58 10° W 17:58:48 28° SSW 18:02:40 10° SSE visible
21 Nov ? 18:11:54 10° W 18:15:03 19° SW 18:18:13 10° S visible
